Location: Dackenheim
(49.5215°N, 8.1854°E)
Time: 12:53:54
(UTC+00:00)

JY1SAT - Pass Details

Date: 14 March 2026
Orbit: 466 x 476 km, 97.4° (Epoch: 14 April)

Event Time Altitude Azimuth Distance (km) Brightness Sun altitude
Exits shadow 20:49:56 17° 334° (NNW) 1,312 ? -31.0°
Drops below altitude 10° 20:50:49 10° 338° (NNW) 1,667 ? -31.1°
Sets 20:52:56 0° 343° (NNW) 2,552 ? -31.4°
